ISS DEB (44305 NORAD) Tracking and Keplerian Element Data

This shows tracking and keplerian element data for the satellite.

Feedback or suggestion? Click here.




ElementValue
Catalog44305
NameISS DEB
Epoch Orbit758
Epoch Day198.60162279
Epoch Year2019
RAAN209.8874
Inclination51.6367
Eccentricity0.0004597
Argument of Perigee190.5732
Mean Anonmoly169.5162
Mean Motion15.52875079
Decay Rate6.792E-05
L11 44305U 98067QC 19198.60162279 .00006792 00000-0 11473-3 0 9990
L22 44305 51.6367 209.8874 0004597 190.5732 169.5162 15.52875079 7585

Live tracking and technical data element details for ISS DEB (NORAD 44305). ISS DEB can be tracked NOW for your location showing map with azimuth and elevation plus other details from your city location.

Track the satellite on the map from your city or location and see movement details for azimuth, elevation, latitude, longitude, range, height, and movement on the map or in text.







IsCatalogInMostPopularTable: catalog: 44305, numindb: 11
Update: records affected: 1



GetName: 44305 ISS DEB

Hit Count: updated at: Fri, 19 Jul 2019 23:08:56 GMT